Flag for U.S.A. Weather past 2 weeks in New Haven, Connecticut, U.S.A.

Now
75 °F

Clear.


Feels Like: 74 °F
Forecast: 71 / 88 °F
Wind: No wind

Location: Tweed-New Haven Airport

Current Time: Sep 2, 2014 at 3:55:32 AM

Latest Report: Sep 2, 2014 at 2:53 AM


Visibility: 8 mi

Pressure: 29.91 "Hg

Humidity: 90%

Dew point: 72 °F

Location of New HavenLocation

Historic Weather in New Haven — Graph

°F

New Haven temperature yesterday

Maximum temperature yesterday: 85 °F (at 1:53 PM)
Minimum temperature yesterday: 75 °F (at 5:53 AM)
Average temperature yesterday: 79 °F

Past Weeks' High & Low Weather Summary

 TemperatureHumidityPressure
High88 °F (Aug 25, 12:53 PM)97% (Aug 20, 5:53 AM)30.29 "Hg (Aug 20, 5:53 AM)
Low57 °F (Aug 19, 3:53 AM)35% (Aug 18, 6:53 PM)29.82 "Hg (Aug 18, 3:53 PM)
Average72 °F69%30.04 "Hg
* Reported Aug 18 2:53 AM — Sep 2 2:53 AM, New Haven, Weather by CustomWeather, © 2014

Note: Actual official high and low records may vary slightly from our data, if they occured in-between our weather recording intervals... More about our weather records

Advertising

New Haven weather history for previous 24 hours

 ConditionsComfort  
Time TempWeatherWind HumidityBarometerVisibility
2:53 AM
Sep 2
75 °FClear.No wind90%29.91 "Hg8 mi
1:53 AM76 °FMostly cloudy.No wind88%29.92 "Hg8 mi
12:53 AM77 °FClear.3 mph85%29.93 "Hg10 mi
11:53 PM
Sep 1
77 °FOvercast.No wind85%29.94 "Hg10 mi
10:53 PM78 °FPassing clouds.No wind82%29.95 "Hg10 mi
9:53 PM79 °FClear.3 mph79%29.95 "Hg10 mi
8:53 PM80 °FPassing clouds.6 mph76%29.94 "Hg10 mi
7:53 PM80 °FBroken clouds.6 mph76%29.93 "Hg10 mi
6:53 PM81 °FPassing clouds.6 mph74%29.92 "Hg10 mi
5:53 PM84 °FScattered clouds.6 mph67%29.93 "Hg10 mi
4:53 PM84 °FBroken clouds.6 mph65%29.93 "Hg10 mi
3:53 PM84 °FBroken clouds.5 mph65%29.94 "Hg10 mi
2:53 PM85 °FPassing clouds.9 mph63%29.95 "Hg10 mi
1:53 PM85 °FScattered clouds.8 mph59%29.96 "Hg10 mi
12:53 PM82 °FScattered clouds.8 mph70%29.97 "Hg10 mi
11:53 AM81 °FBroken clouds.9 mph74%29.98 "Hg10 mi
10:53 AM80 °FPassing clouds.7 mph79%29.99 "Hg10 mi
9:53 AM79 °FBroken clouds.6 mph82%29.99 "Hg7 mi
8:53 AM77 °FScattered clouds.6 mph85%30.00 "Hg7 mi
8:02 AM76 °FFog.3 mph88%30.00 "Hg4 mi
7:53 AM76 °FFog.3 mph88%30.00 "Hg4 mi
6:53 AM75 °FFog.No wind90%30.00 "Hg5 mi
5:53 AM75 °FFog.No wind90%30.00 "Hg5 mi
4:53 AM76 °FFog.No wind91%29.98 "Hg4 mi
3:53 AM76 °FFog.No wind91%29.97 "Hg5 mi
Weather by CustomWeather, © 2014

See weather overviewHow to use our weather pages